Regional Weather Roundup
Issued by NWS

Home | Current Version | Previous Version | Text Only | Print | Product List | Glossary Off
Versions: 1 2 3 4 5 6 7 8 9 10 11 12 13 14 15 16 17 18 19 20 21 22 23 24 25 26 27 28 29 30 31 32 33 34 35 36 37 38 39 40 41 42 43 44 45 46 47 48 49 50

000
ASUS43 KMPX 210401
RWRMN
WEATHER ROUNDUP FOR MINNESOTA
NATIONAL WEATHER SERVICE TWIN CITIES/CHANHASSEN MN
1100 PM CDT SUN AUG 20 2017


NOTE: "FAIR" INDICATES FEW OR NO CLOUDS BELOW 12,000 FEET WITH NO
SIGNIFICANT WEATHER AND/OR OBSTRUCTIONS TO VISIBILITY. N/A MEANS
CURRENT SKY AND/OR WEATHER CONDITIONS ARE NOT AVAILABLE.

MNZ060>063-068>070-210500-
   Twin Cities Metro

CITY           SKY/WX    TMP DP  RH WIND       PRES   REMARKS
TWIN CITIES    CLOUDY    73  63  70 E5        30.02R
ST PAUL        PTCLDY    72  66  81 SE3       30.02R
CRYSTAL        MOCLDY    68  61  78 CALM      30.01R
BLAINE         CLEAR     70  63  78 CALM      30.03R
LAKEVILLE      CLOUDY    66  66 100 CALM      30.03S
EDEN PRAIRIE   PTCLDY    72  65  78 E5        30.01R
SOUTH ST PAUL  CLEAR     73  64  75 CALM      30.02R
LAKE ELMO      FAIR      68  64  88 SE3       30.04R
$$
MNZ001>005-007-008-013>017-022>024-027-028-210500-
   Northwest Minnesota

CITY           SKY/WX    TMP DP  RH WIND       PRES   REMARKS
BEMIDJI        CLEAR     54  50  87 CALM      30.04S
HALLOCK        PTCLDY    55  46  71 CALM      30.00R
ROSEAU         CLEAR     54  48  82 SW5       30.00S
WARROAD        PTCLDY    54  50  87 CALM      30.01S
CROOKSTON      CLEAR     57  46  67 SE5       30.03R
FOSSTON        CLEAR     50  45  81 CALM      30.05S
DETROIT LAKES  PTCLDY    61  54  77 CALM      30.06S
MOORHEAD       PTCLDY    63  54  72 SW3       30.04R
PARK RAPIDS    CLEAR     59  53  80 CALM      30.05R
MAHNOMEN       FAIR      56  52  86 S5        30.04S
$$
MNZ006-009>011-018-025>026-210500-
   North Central Minnesota

CITY           SKY/WX    TMP DP  RH WIND       PRES   REMARKS
BAUDETTE       CLEAR     54  48  80 CALM      30.00R
FLAG ISLAND    CLEAR     66  48  52 CALM      29.97S HAZE
INTL FALLS     CLEAR     50  47  89 CALM      30.00R
WASKISH        CLEAR     68  52  56 W7        30.02R
BIG FORK       CLEAR     52  50  93 CALM      30.03R
LONGVILLE      CLEAR     54  52  94 CALM      30.04S
GRAND RAPIDS   CLEAR     55  53  93 SW3       30.05S
CRANE LAKE     CLEAR     48  48 100 CALM      30.02R
ORR            CLEAR     55  48  76 CALM      30.00R
COOK           CLEAR     55  54  94 CALM      30.03R
WALKER         FAIR      55  53  91 W3        30.05R
$$
MNZ012-019>021-037-210500-
   Northeast Minnesota

CITY           SKY/WX    TMP DP  RH WIND       PRES   REMARKS
DULUTH         PTCLDY    61  55  81 NW8       30.02R
ELY            CLEAR     55  54  94 CALM      30.02S
HIBBING        CLEAR     51  50  96 CALM      30.02S
EVELETH        CLEAR     54  51  90 CALM      30.03S FOG
DULUTH HARBOR  PTCLDY    66  61  82 SW3       30.01R
TWO HARBORS    CLEAR     66  57  72 CALM      29.99R
GRAND MARAIS     N/A     67  52  58 NW8       29.95R
$$
MNZ029>031-032-039>041-046>048-054>057-064-210500-
   West Central Minnesota

CITY           SKY/WX    TMP DP  RH WIND       PRES   REMARKS
FERGUS FALLS   PTCLDY    63  55  77 NE3       30.05R
WHEATON        CLOUDY    63  57  82 CALM      30.06S
MORRIS         MOCLDY    63  61  94 N7        30.03S
ELBOW LAKE     FAIR      62  60  92 CALM      30.06R
WADENA         PTCLDY    55  55 100 CALM      30.05R
GLENWOOD       CLOUDY    63  59  88 N6        30.05S
APPLETON       CLEAR     59  57  94 CALM      30.03S FOG
BENSON         FOG       57  55  94 CALM      30.05S VSB 1/2
ORTONVILLE     CLEAR     61  55  82 MISG      30.04S
MADISON        CLEAR     63  63 100 CALM      30.04S
WILLMAR        FAIR      64  63  94 CALM      30.05S
$$
MNZ033>034-036-042>043-049>051-058-059-210500-
   Central Minnesota

CITY           SKY/WX    TMP DP  RH WIND       PRES   REMARKS
ST CLOUD       CLOUDY    64  61  90 CALM      30.02S
SAUK CENTRE    FAIR      63  57  80 N3        30.05R
PAYNESVILLE    PTCLDY    62  60  94 NW3       30.04S
AITKIN         FOG       52  52 100 CALM      30.03S VSB 1
PINE RIVER     CLEAR     52  50  93 CALM      30.08S
BRAINERD       CLEAR     58  57  97 CALM      30.04S
STAPLES        CLOUDY    57  54  88 CALM      30.05S
LONG PRAIRIE   FAIR      61  54  77 CALM      30.05R
LITTLE FALLS   CLEAR     63  55  77 CALM      30.04R
LITCHFIELD     CLEAR     66  63  88 CALM      30.03S
BUFFALO        CLEAR     66  60  80 CALM      30.04R
MAPLE LAKE     CLEAR     65  61  86 CALM      30.04R
HUTCHINSON     PTCLDY    66  63  88 CALM      30.04R
$$
MNZ037-044-045-052-053-210500-
   East Central Minnesota

CITY           SKY/WX    TMP DP  RH WIND       PRES   REMARKS
PRINCETON      CLEAR     63  61  94 CALM      30.02S FOG
MORA           CLEAR     59  55  88 CALM      30.04S
CAMBRIDGE      CLEAR     64  61  88 CALM      30.03R
RUSH CITY      PTCLDY    59  57  94 CALM      30.03R FOG
MOOSE LAKE     CLEAR     55  54  94 CALM      30.01R
HINCKLEY       FAIR      59  59 100 CALM      30.02R
CLOQUET        CLEAR     59  52  77 W5        30.03R
MCGREGOR       CLEAR     54  52  94 CALM      30.04R
$$
MNZ071>073-080-081-089-090-097-098-210500-
   Southwest Minnesota

CITY           SKY/WX    TMP DP  RH WIND       PRES   REMARKS
MONTEVIDEO     CLEAR     61  55  82 N3        30.04S
GRANITE FALLS  PTCLDY    61  60  97 CALM      30.06R
CANBY          CLEAR     61  59  93 CALM      30.06R
MARSHALL       MOCLDY    62  60  93 NW5       30.05R
REDWOOD FALLS  PTCLDY    66  62  87 N8        30.03R
OLIVIA         CLEAR     61  59  94 NW3       30.03R
PIPESTONE      PTCLDY    66  61  82 E6        30.04S
WINDOM         CLEAR     66  64  94 CALM      30.04S
WORTHINGTON    MOCLDY    66  65  96 NE5       30.05S
JACKSON        PTCLDY    66  63  88 CALM      30.05S
TRACY          MOCLDY    64  63  99 N3        30.05R
SLAYTON        CLOUDY    65  60  84 CALM      30.06R
$$
MNZ065>067-074>077-082>085-091>093-210500-
   South Central Minnesota

CITY           SKY/WX    TMP DP  RH WIND       PRES   REMARKS
MANKATO        PTCLDY    70  66  87 N3        30.04R
NEW ULM        PTCLDY    66  63  88 CALM      30.03R
ST JAMES       CLEAR     66  64  94 CALM      30.04S
FAIRMONT       CLEAR     70  67  90 N5        30.04R
GLENCOE        CLEAR     65  65  99 CALM      30.03R
FARIBAULT      PTCLDY    70  66  88 CALM      30.04R
OWATONNA       CLEAR     72  70  94 CALM      30.03R
WASECA         MOCLDY    70  68  94 N5        30.04S
ALBERT LEA     CLEAR     72  70  94 CALM      30.03S FOG
$$
MNZ078>079-086>088-094>096-210500-
   Southeast Minnesota

CITY           SKY/WX    TMP DP  RH WIND       PRES   REMARKS
ROCHESTER      MOCLDY    72  68  87 CALM      30.05R
RED WING       CLOUDY    73  64  73 CALM      30.01R
STANTON        PTCLDY    71  68  89 CALM      30.02R
DODGE CENTER   CLEAR     66  64  94 E3        30.04S
WINONA         CLOUDY    72  70  94 N5        30.02R
AUSTIN         MOCLDY    70  66  88 CALM      30.04R
PRESTON        CLEAR     69  65  88 S6        30.05R
$$
ABBREVIATIONS USED IN REMARKS
   TC - TEMPERATURES IN CELSIUS
  WCI - WIND CHILL INDEX
   HX - HEAT INDEX
  VSB - VISIBILITY
$$




USA.gov is the U.S. government's official web portal to all federal, state and local government web resources and services.